Regional Weather Roundup
Issued by NWS Green Bay, WI

Home | Current Version | Previous Version | Text Only | Print | Product List | Glossary On
Versions: 1 2 3 4 5 6 7 8 9 10 11 12 13 14 15 16 17 18 19 20 21 22 23 24 25 26 27 28 29 30 31 32 33 34 35 36 37 38 39 40 41 42 43 44 45 46 47 48 49 50
000
ASUS43 KGRB 301011
RWRGRB

NORTH-CENTRAL AND NORTHEAST WISCONSIN REGIONAL WEATHER ROUNDUP
NATIONAL WEATHER SERVICE GREEN BAY WI
500 AM CDT THU JUL 30 2015

WIZ005-009-010>012-018-019-301100-
NORTH CENTRAL WISCONSIN

CITY           SKY/WX    TMP DP  RH WIND       PRES   REMARKS
IRONWOOD       CLEAR     64  54  68 W15       29.86R
MANITOWISH WTR CLEAR     61  54  77 W9        29.91S
ARBOR VITAE    CLEAR     62  55  76 W10       29.92R
EAGLE RIVER    CLEAR     62  51  66 W9        29.90R
LAND O LAKES   CLEAR     62  52  71 W7        29.90R
RHINELANDER    CLEAR     61  53  75 W12       29.93S
PHILLIPS       CLEAR     60  54  81 W3        29.94S
ANTIGO         CLEAR     60  55  82 W10G16    29.94S
TOMAHAWK       CLEAR     62  53  73 W8        29.95R
MERRILL        NOT AVBL
$$

WIZ013-073-301100-
NORTHEAST WISCONSIN

CITY           SKY/WX    TMP DP  RH WIND       PRES   REMARKS
IRON MOUNTAIN  CLEAR     65  53  65 W8        29.84S
MARINETTE      CLEAR     64  54  68 W5        29.86S
OCONTO         CLEAR     62  56  82 W7        29.89R
$$

WIZ017-030-035>037-045-301100-
CENTRAL WISCONSIN

CITY           SKY/WX    TMP DP  RH WIND       PRES   REMARKS
MEDFORD        CLEAR     59  55  86 W7        29.97S
WAUSAU         CLEAR     64  55  72 NW13      29.94R
MOSINEE        CLEAR     61  55  82 W9        29.97S
MARSHFIELD     CLEAR     61  53  75 W7        29.98S
WISC RAPIDS    CLEAR     63  53  70 W8        29.99S
STEVENS POINT  CLEAR     63  54  72 W8        29.98R
WAUPACA        CLEAR     66  55  67 W7        29.96S
SHAWANO        CLEAR     66  55  67 W9        29.92S
CLINTONVILLE   CLEAR     63  54  72 W7        29.93S
$$

WIZ038-039-048-051-301100-
FOX VALLEY

CITY           SKY/WX    TMP DP  RH WIND       PRES   REMARKS
NWS GREEN BAY  CLEAR     65  55  70 W8        29.92S
APPLETON       CLEAR     61  52  72 W8        29.96R
OSHKOSH        CLEAR     67  54  63 W7        29.96R
FOND DU LAC    CLEAR     65  55  70 W7        29.97S
$$

WIZ022-050-052-301100-
EAST CENTRAL WISCONSIN

CITY           SKY/WX    TMP DP  RH WIND       PRES   REMARKS
STURGEON BAY   CLEAR     66  54  63 W12       29.91R
MANITOWOC      CLEAR     68  56  65 MISG      29.93R
SHEBOYGAN      CLEAR     67  55  65 W12       29.95R
$$

LMZ563-521-522-541>543-301100-
LAKESHORE

STATION/POSITION TIME  TEMP    WIND        PRES    VSBY  WAVE
                       AIR SEA DIR/SP/G                  HT/PER
                 (UTC) (F)     (DEG/KT/KT) (MB)    (MI)  (FT/S)
SHEBOYGAN LKSHOR 1000   70     260/ 11/ 14 1013.9R
ALGOMA MARINA    0942          270/  6/ 11   N/A
NORTHPORT PIER   0900   71     240/  6/ 14 1010.2S
N MID LAKE BUOY  0950   71 69  260/ 19/ 23 1009.0R         3/ 4
S GREEN BAY BUOY 1000   65 65  240/ 12/ 16 1013.5R
CHAMBERS ISLAND  0900   68     210/  8/ 14 1010.8S
MENOMINEE LKSHOR 0900   68                   N/A
$$



USA.gov is the U.S. government's official web portal to all federal, state and local government web resources and services.